• en France
  • Liste des pays
  • À 7 jours
  • Température de l'eau
  • Carte satellitaire
  • Carte météo
  • Widgets météo
  • user-avatar
    Se connecter

    Météo par heure à Dobrodushnoe

    Ce jour, 26 Septembre, Mercredi

    Heure Température Précipitation Vent Pression Humidité
    00:00 +6°C° 0 mm 4 m/s 747 mmHg 79%
    01:00 +6°C° 0 mm 4 m/s 747 mmHg 80%
    02:00 +5°C° 0 mm 4 m/s 748 mmHg 82%
    03:00 +5°C° 0 mm 4 m/s 749 mmHg 84%
    04:00 +4°C° 0 mm 4 m/s 749 mmHg 86%
    05:00 +4°C° 0 mm 3 m/s 750 mmHg 88%
    06:00 +3°C° 0 mm 3 m/s 750 mmHg 90%
    07:00 +4°C° 0 mm 3 m/s 751 mmHg 84%
    08:00 +5°C° 0 mm 4 m/s 752 mmHg 79%
    09:00 +6°C° 0 mm 4 m/s 752 mmHg 74%
    10:00 +7°C° 0 mm 4 m/s 753 mmHg 68%
    11:00 +8°C° 0 mm 4 m/s 753 mmHg 62%
    12:00 +10°C° 0 mm 4 m/s 753 mmHg 56%
    13:00 +10°C° 0 mm 4 m/s 753 mmHg 55%
    14:00 +10°C° 0 mm 4 m/s 753 mmHg 53%
    15:00 +10°C° 0 mm 4 m/s 754 mmHg 52%
    16:00 +10°C° 0 mm 3 m/s 754 mmHg 55%
    17:00 +9°C° 0 mm 3 m/s 754 mmHg 57%
    18:00 +8°C° 0 mm 2 m/s 754 mmHg 60%
    19:00 +7°C° 0 mm 2 m/s 753 mmHg 63%
    20:00 +7°C° 0 mm 3 m/s 753 mmHg 66%
    21:00 +5°C° 0 mm 3 m/s 753 mmHg 69%
    22:00 +5°C° 0 mm 3 m/s 753 mmHg 69%
    23:00 +5°C° 0 mm 4 m/s 752 mmHg 69%

    Demain, 27 Septembre, Jeudi

    Heure Température Précipitation Vent Pression Humidité
    00:00 +5°C° 0 mm 4 m/s 752 mmHg 69%
    01:00 +5°C° 0 mm 5 m/s 751 mmHg 68%
    02:00 +4°C° 0 mm 6 m/s 751 mmHg 66%
    03:00 +4°C° 0 mm 6 m/s 750 mmHg 65%
    04:00 +4°C° 0 mm 7 m/s 749 mmHg 64%
    05:00 +5°C° 0 mm 8 m/s 748 mmHg 63%
    06:00 +5°C° 0 mm 8 m/s 747 mmHg 62%
    07:00 +5°C° 0.8 mm 9 m/s 746 mmHg 65%
    08:00 +5°C° 0.8 mm 9 m/s 745 mmHg 69%
    09:00 +3°C° 0.8 mm 10 m/s 745 mmHg 72%
    10:00 +5°C° 1.2 mm 10 m/s 744 mmHg 75%
    11:00 +5°C° 1.2 mm 10 m/s 743 mmHg 78%
    12:00 +5°C° 1.2 mm 10 m/s 743 mmHg 81%
    13:00 +5°C° 0.6 mm 9 m/s 743 mmHg 82%
    14:00 +6°C° 0.6 mm 9 m/s 742 mmHg 83%
    15:00 +7°C° 0.6 mm 8 m/s 742 mmHg 83%
    16:00 +7°C° 0.2 mm 8 m/s 743 mmHg 82%
    17:00 +8°C° 0.2 mm 7 m/s 743 mmHg 81%
    18:00 +8°C° 0.2 mm 6 m/s 743 mmHg 79%
    19:00 +7°C° 0 mm 6 m/s 744 mmHg 80%
    20:00 +7°C° 0 mm 5 m/s 744 mmHg 82%
    21:00 +7°C° 0 mm 5 m/s 745 mmHg 83%
    22:00 +6°C° 0 mm 5 m/s 745 mmHg 84%
    23:00 +6°C° 0 mm 5 m/s 745 mmHg 86%

    Après-demain, 28 Septembre, Vendredi

    Heure Température Précipitation Vent Pression Humidité
    00:00 +6°C° 0 mm 5 m/s 745 mmHg 88%
    01:00 +6°C° 0 mm 5 m/s 745 mmHg 88%
    02:00 +6°C° 0 mm 5 m/s 745 mmHg 89%
    03:00 +6°C° 0 mm 5 m/s 745 mmHg 90%
    04:00 +6°C° 0 mm 5 m/s 745 mmHg 91%
    05:00 +6°C° 0 mm 5 m/s 745 mmHg 92%
    06:00 +6°C° 0 mm 5 m/s 744 mmHg 93%
    07:00 +7°C° 0 mm 6 m/s 744 mmHg 87%
    08:00 +8°C° 0 mm 7 m/s 744 mmHg 80%
    09:00 +8°C° 0 mm 9 m/s 743 mmHg 74%
    10:00 +11°C° 0 mm 9 m/s 743 mmHg 72%
    11:00 +12°C° 0 mm 10 m/s 742 mmHg 69%
    12:00 +13°C° 0 mm 10 m/s 742 mmHg 67%
    13:00 +13°C° 0 mm 10 m/s 742 mmHg 70%
    14:00 +13°C° 0 mm 9 m/s 741 mmHg 72%
    15:00 +12°C° 0 mm 9 m/s 741 mmHg 75%
    16:00 +13°C° 0 mm 9 m/s 741 mmHg 76%
    17:00 +13°C° 0 mm 9 m/s 741 mmHg 77%
    18:00 +13°C° 0 mm 9 m/s 741 mmHg 78%
    19:00 +12°C° 0.5 mm 8 m/s 741 mmHg 80%
    20:00 +12°C° 0.5 mm 7 m/s 742 mmHg 81%
    21:00 +11°C° 0.5 mm 6 m/s 743 mmHg 82%
    22:00 +9°C° 0 mm 5 m/s 744 mmHg 82%
    23:00 +8°C° 0 mm 5 m/s 744 mmHg 82%

    29 Septembre, Samedi

    Heure Température Précipitation Vent Pression Humidité
    00:00 +6°C° 0 mm 4 m/s 745 mmHg 81%
    01:00 +5°C° 0 mm 3 m/s 746 mmHg 83%
    02:00 +4°C° 0 mm 3 m/s 747 mmHg 85%
    03:00 +4°C° 0 mm 2 m/s 748 mmHg 87%
    04:00 +4°C° 0 mm 2 m/s 748 mmHg 88%
    05:00 +4°C° 0 mm 2 m/s 749 mmHg 88%
    06:00 +4°C° 0 mm 2 m/s 749 mmHg 88%
    07:00 +5°C° 0 mm 2 m/s 750 mmHg 82%
    08:00 +6°C° 0 mm 2 m/s 750 mmHg 75%
    09:00 +7°C° 0 mm 2 m/s 751 mmHg 69%
    10:00 +9°C° 0 mm 2 m/s 751 mmHg 63%
    11:00 +10°C° 0 mm 3 m/s 751 mmHg 58%
    12:00 +11°C° 0 mm 3 m/s 751 mmHg 52%
    13:00 +11°C° 0 mm 3 m/s 751 mmHg 51%
    14:00 +13°C° 0 mm 2 m/s 751 mmHg 50%
    15:00 +13°C° 0 mm 2 m/s 751 mmHg 49%
    16:00 +12°C° 0 mm 2 m/s 751 mmHg 53%
    17:00 +10°C° 0 mm 2 m/s 752 mmHg 56%
    18:00 +10°C° 0 mm 1 m/s 752 mmHg 60%
    19:00 +10°C° 0 mm 1 m/s 752 mmHg 61%
    20:00 +10°C° 0 mm 1 m/s 753 mmHg 61%
    21:00 +8°C° 0 mm 2 m/s 753 mmHg 62%
    22:00 +8°C° 0 mm 2 m/s 753 mmHg 61%
    23:00 +7°C° 0 mm 2 m/s 753 mmHg 61%

    30 Septembre, Dimanche

    Heure Température Précipitation Vent Pression Humidité
    00:00 +7°C° 0 mm 2 m/s 754 mmHg 61%
    01:00 +6°C° 0 mm 2 m/s 754 mmHg 62%
    02:00 +5°C° 0 mm 2 m/s 754 mmHg 63%
    03:00 +4°C° 0 mm 2 m/s 754 mmHg 63%
    04:00 +5°C° 0 mm 1 m/s 755 mmHg 65%
    05:00 +5°C° 0 mm 1 m/s 755 mmHg 66%
    06:00 +4°C° 0 mm 1 m/s 755 mmHg 67%
    07:00 +6°C° 0 mm 1 m/s 755 mmHg 62%
    08:00 +7°C° 0 mm 1 m/s 756 mmHg 58%
    09:00 +8°C° 0 mm 1 m/s 756 mmHg 53%
    10:00 +10°C° 0 mm 1 m/s 756 mmHg 49%
    11:00 +11°C° 0 mm 1 m/s 756 mmHg 45%
    12:00 +12°C° 0 mm 1 m/s 756 mmHg 41%
    13:00 +12°C° 0 mm 1 m/s 756 mmHg 40%
    14:00 +12°C° 0 mm 1 m/s 755 mmHg 40%
    15:00 +12°C° 0 mm 2 m/s 755 mmHg 39%
    16:00 +11°C° 0 mm 1 m/s 755 mmHg 43%
    17:00 +10°C° 0 mm 1 m/s 755 mmHg 48%
    18:00 +9°C° 0 mm 1 m/s 755 mmHg 52%
    19:00 +8°C° 0 mm 1 m/s 755 mmHg 54%
    20:00 +8°C° 0 mm 1 m/s 755 mmHg 55%
    21:00 +8°C° 0 mm 1 m/s 755 mmHg 57%
    22:00 +6°C° 0 mm 2 m/s 755 mmHg 58%
    23:00 +6°C° 0 mm 2 m/s 755 mmHg 60%

    1 Octobre, Lundi

    Heure Température Précipitation Vent Pression Humidité
    00:00 +6°C° 0 mm 2 m/s 755 mmHg 62%
    01:00 +5°C° 0 mm 2 m/s 755 mmHg 64%
    02:00 +5°C° 0 mm 2 m/s 755 mmHg 66%
    03:00 +5°C° 0 mm 2 m/s 755 mmHg 68%
    04:00 +5°C° 0 mm 2 m/s 755 mmHg 70%
    05:00 +5°C° 0 mm 2 m/s 754 mmHg 73%
    06:00 +5°C° 0 mm 2 m/s 754 mmHg 76%
    07:00 +5°C° 0 mm 3 m/s 754 mmHg 72%
    08:00 +7°C° 0 mm 3 m/s 754 mmHg 69%
    09:00 +9°C° 0 mm 3 m/s 754 mmHg 65%
    10:00 +10°C° 0 mm 4 m/s 754 mmHg 60%
    11:00 +12°C° 0 mm 4 m/s 754 mmHg 55%
    12:00 +13°C° 0 mm 5 m/s 754 mmHg 49%
    13:00 +13°C° 0 mm 5 m/s 754 mmHg 49%
    14:00 +14°C° 0 mm 4 m/s 754 mmHg 48%
    15:00 +14°C° 0 mm 4 m/s 753 mmHg 47%
    16:00 +13°C° 0 mm 4 m/s 753 mmHg 52%
    17:00 +11°C° 0 mm 3 m/s 753 mmHg 57%
    18:00 +10°C° 0 mm 2 m/s 753 mmHg 63%
    19:00 +9°C° 0 mm 2 m/s 753 mmHg 65%
    20:00 +9°C° 0 mm 2 m/s 753 mmHg 67%
    21:00 +8°C° 0 mm 2 m/s 753 mmHg 69%
    22:00 +8°C° 0 mm 2 m/s 753 mmHg 70%
    23:00 +8°C° 0 mm 2 m/s 754 mmHg 71%
    Voir plus